Theta_e
331 329 328 327 327 325 324 322 321 320 320 319 319 318 317 315 314 313 313 312 311 310 309 308 307 306 305 303 303 303 303 303 303 303 303 303 303 304 304 304 303 303
330 328 327 327 327 325 323 321 321 320 318 318 317 316 315 314 314 313 313 312 311 310 309 308 306 305 304 303 303 303 302 302 303 302 302 302 302 303 303 303 303 302
328 327 327 327 327 324 322 321 320 317 316 316 316 315 314 314 314 313 312 311 310 309 308 307 306 305 304 303 303 303 303 303 303 302 302 302 302 302 303 302 302 302
328 327 326 327 325 322 321 321 319 315 315 316 315 314 313 313 313 312 311 310 310 309 308 307 306 305 304 303 303 303 303 302 302 302 302 302 301 302 302 302 301 301
327 326 325 326 324 321 321 320 317 314 315 315 314 312 312 312 312 311 311 310 309 308 307 307 305 304 304 303 303 303 302 302 302 302 302 302 301 301 301 301 301 301
326 324 324 324 322 321 320 317 315 315 315 314 312 312 312 312 311 311 310 310 309 308 307 306 305 305 304 303 303 303 303 302 302 301 301 302 301 301 301 301 300 301
325 324 324 323 321 321 319 315 314 315 314 313 312 311 311 311 310 310 310 309 308 308 307 306 305 305 304 304 303 303 303 302 302 301 301 301 301 301 300 300 300 300
325 324 323 322 321 319 316 314 314 315 314 313 311 310 310 310 310 309 309 309 308 307 306 306 305 305 304 303 303 303 303 302 302 301 302 302 301 301 300 300 300 300
324 322 321 321 320 317 315 314 314 314 313 312 311 310 310 309 309 309 309 308 307 307 306 305 305 305 304 303 302 302 302 302 302 302 302 302 301 301 300 300 300 300
323 322 321 321 318 315 314 314 314 313 313 312 310 309 309 309 309 308 308 308 307 307 306 305 305 305 303 302 302 302 302 302 302 302 302 302 301 301 301 300 300 300
322 321 320 318 316 315 315 314 313 313 312 311 309 309 309 309 308 307 307 307 307 307 306 305 305 305 303 302 302 302 302 302 302 302 302 302 301 301 301 301 300 300
320 319 317 316 316 315 314 313 312 312 311 310 309 308 308 308 307 307 307 307 307 306 306 305 305 304 304 303 303 302 302 302 302 302 302 302 301 301 301 301 301 300
318 317 316 316 316 314 313 312 312 312 311 309 308 308 307 307 307 307 307 307 306 306 306 305 305 304 304 303 303 303 303 303 302 302 302 302 302 301 301 301 301 301
318 318 317 316 315 314 313 311 311 311 310 308 308 307 307 307 307 307 307 307 306 306 306 305 305 305 304 303 303 303 303 303 303 302 302 302 302 301 301 301 301 301
318 317 316 315 314 313 311 310 310 310 308 307 307 307 306 306 306 307 307 307 306 306 306 305 305 305 304 304 303 303 303 303 303 303 302 302 302 302 302 301 301 301
317 316 315 314 313 311 310 309 308 308 307 306 306 306 306 306 306 306 306 306 306 306 306 305 305 305 304 303 303 303 303 303 303 303 303 303 302 302 302 301 301 301
315 314 313 312 311 310 309 308 307 307 306 305 304 304 304 305 305 305 305 305 305 305 305 305 306 305 303 302 301 302 303 303 303 303 303 303 302 302 303 302 302 302
314 313 312 312 310 309 308 308 307 306 304 304 303 302 301 301 300 301 304 305 305 305 305 305 306 304 301 300 300 300 302 303 303 303 303 303 303 303 302 302 302 301
313 312 311 310 309 308 308 307 306 305 304 303 303 302 299 296 293 297 303 305 305 305 305 306 305 303 300 300 299 299 300 303 303 303 302 303 303 302 302 302 302 301
312 311 310 309 308 308 307 306 304 304 303 303 303 301 296 293 294 299 303 305 304 305 305 305 304 302 300 300 299 299 299 300 302 303 302 302 302 302 302 302 301 301
311 310 309 308 307 307 306 305 304 303 302 302 303 299 295 295 299 302 304 304 304 305 305 305 303 301 300 300 300 300 299 299 302 302 301 302 302 301 302 302 300 299
311 310 309 308 307 306 305 304 303 302 302 302 302 300 298 299 301 303 303 304 304 304 305 304 302 300 300 300 299 299 298 299 301 301 300 301 301 301 301 301 299 299
311 310 309 308 306 305 305 304 304 304 304 303 302 301 301 301 302 303 303 303 304 304 304 303 301 300 299 299 298 298 298 298 299 299 299 300 301 301 301 300 298 298
310 310 308 308 307 306 305 305 305 304 304 303 302 302 301 301 302 302 302 302 303 303 303 302 300 299 299 298 298 297 296 297 297 298 299 301 301 300 300 299 297 295
310 309 309 308 307 306 305 304 304 304 303 302 302 301 301 300 300 301 301 302 302 302 302 301 300 299 298 298 297 294 293 296 298 299 300 301 300 300 299 299 297 295
310 309 309 308 307 305 304 304 304 303 302 302 301 300 300 299 299 300 301 301 302 302 301 300 300 299 297 295 293 290 291 296 300 299 300 301 300 299 299 298 298 297
Wind_Speed
20 22 24 24 24 23 18 17 18 15 10 8 7 7 8 10 10 11 10 11 11 11 11 11 11 11 11 11 12 11 11 11 11 11 11 12 12 12 12 12 11 12
20 24 27 26 24 23 20 19 18 14 11 9 8 8 10 12 12 12 12 12 12 12 12 11 11 11 11 11 11 11 11 10 10 11 12 12 12 11 12 12 12 12
23 26 27 26 24 23 22 21 18 15 13 10 9 10 12 12 13 12 12 13 12 12 12 11 11 11 11 11 11 10 10 10 10 11 11 11 10 10 10 11 11 11
25 27 27 25 24 24 23 21 19 17 14 11 11 12 13 13 13 13 13 13 13 13 12 11 11 11 11 11 10 10 10 10 10 10 11 11 10 10 10 10 10 10
25 26 26 25 24 24 22 20 19 17 14 12 12 13 13 14 14 14 14 13 13 13 12 12 11 11 11 10 10 10 10 10 10 10 10 10 9 9 9 9 9 9
24 25 25 25 25 24 22 21 19 16 14 13 14 14 14 14 14 14 14 14 13 13 13 12 11 11 10 10 10 10 9 10 10 10 10 10 9 9 8 8 8 8
25 25 25 26 26 24 23 21 18 15 14 14 14 15 15 15 14 14 14 14 14 13 13 12 12 11 10 10 10 10 10 10 10 10 10 10 9 9 8 8 8 9
26 27 26 27 26 25 23 20 17 16 14 14 15 15 15 15 15 14 14 14 14 13 13 13 12 11 10 10 11 11 11 10 10 10 9 9 9 9 8 8 8 8
27 28 28 28 27 26 23 18 17 16 14 14 15 15 14 14 14 15 14 14 14 14 13 13 12 11 10 11 12 12 11 10 10 9 9 9 8 8 8 8 8 7
28 28 29 29 28 25 20 18 18 15 14 14 15 15 14 14 14 14 14 14 14 14 14 13 12 11 10 11 12 11 11 11 10 9 8 8 8 8 8 7 7 6
29 29 31 29 25 21 19 19 18 15 14 15 15 15 15 14 14 14 14 14 14 14 14 14 12 11 11 11 11 11 11 10 10 9 8 8 8 8 7 7 6 6
29 29 29 25 21 19 20 20 17 15 14 15 15 16 15 15 15 14 14 15 14 14 14 14 13 12 11 11 11 11 10 10 9 9 8 8 7 7 6 6 6 5
26 26 24 21 20 20 21 19 17 15 15 15 15 15 15 15 15 14 14 14 14 14 14 14 13 12 11 11 11 11 10 9 9 8 8 7 6 6 6 5 5 5
24 23 21 21 21 21 21 20 17 15 15 15 14 13 13 13 14 14 14 13 14 14 13 13 13 12 12 11 11 11 10 9 9 8 7 6 6 5 5 4 4 4
22 21 20 22 22 22 24 22 18 16 16 15 13 12 12 11 12 13 14 13 13 13 13 13 13 12 12 12 11 10 10 9 8 8 7 6 6 5 4 3 3 3
22 21 21 23 22 24 28 26 21 19 18 16 14 12 11 11 11 11 13 13 13 13 13 13 12 12 13 14 13 11 10 8 8 7 6 6 5 5 4 3 3 2
23 22 22 23 23 24 28 27 24 21 18 17 15 13 11 11 10 9 10 12 13 13 13 13 11 12 15 17 15 13 11 8 8 7 6 6 5 5 4 4 3 3
25 24 23 22 22 22 25 26 24 20 19 20 19 17 15 14 14 12 10 11 13 13 13 13 11 13 17 16 15 15 13 9 7 7 7 6 6 5 4 4 4 3
27 25 23 22 22 25 27 26 23 22 23 25 22 19 18 18 18 16 13 12 13 13 14 13 12 16 18 17 15 15 14 10 8 8 8 7 6 5 4 4 4 3
29 25 24 23 26 31 30 26 26 27 28 26 22 19 17 17 18 17 15 14 13 13 13 12 13 18 19 17 15 15 14 12 8 7 8 6 6 5 4 4 4 2
26 25 25 23 26 30 29 27 29 29 26 23 20 18 19 18 17 16 15 15 14 14 13 12 14 19 19 18 16 14 14 11 6 6 7 6 6 6 5 5 4 3
23 25 24 22 22 24 23 23 26 26 23 20 17 16 17 17 16 15 16 16 14 14 13 12 15 19 19 17 16 14 13 10 6 7 8 7 7 7 6 6 4 3
23 25 25 24 24 23 21 21 22 21 20 18 16 15 15 15 15 15 16 16 16 15 13 12 16 20 18 17 16 14 13 10 8 8 9 8 8 8 7 6 5 4
27 27 28 29 28 25 23 23 22 21 20 18 17 16 15 15 15 14 15 16 16 15 14 13 16 20 19 17 16 15 13 11 9 9 9 8 9 8 7 6 5 5
32 31 31 33 31 27 26 28 28 25 23 19 16 15 14 14 14 14 14 15 14 15 14 13 15 19 19 17 16 16 14 11 9 9 9 9 9 9 7 6 6 5
35 35 35 35 33 31 31 33 31 27 23 18 15 13 13 13 14 14 14 14 13 14 14 13 14 18 19 17 16 16 15 13 9 9 10 10 9 9 8 7 7 6
Wind_Direction
176 173 173 174 178 180 176 173 170 159 145 141 136 134 141 143 145 142 133 129 126 123 123 120 118 115 111 109 109 107 106 103 101 99 97 93 90 89 88 86 86 85
176 178 180 179 181 184 180 173 168 158 146 138 132 136 141 142 144 142 136 134 131 128 127 126 122 119 116 116 114 111 111 109 107 104 99 96 93 91 89 87 86 85
180 184 184 184 185 185 178 171 167 159 149 138 136 141 142 144 145 142 140 138 135 133 132 130 126 122 122 123 121 118 119 116 112 108 102 98 96 93 90 88 87 87
184 186 185 187 187 181 174 171 167 159 149 140 140 144 146 147 146 144 144 142 139 138 136 132 130 129 129 130 127 125 124 119 115 111 106 101 97 94 91 91 92 93
187 186 186 188 186 179 173 170 166 157 148 143 144 148 151 150 149 149 149 146 144 142 139 138 136 135 136 136 134 132 129 123 119 114 109 104 100 96 94 97 100 99
187 186 188 188 183 178 173 167 163 155 147 145 146 151 155 154 154 154 152 150 148 145 144 144 142 142 142 142 142 139 135 128 123 116 111 107 104 101 102 103 103 100
186 187 189 186 181 177 172 165 160 153 147 147 150 155 158 156 156 156 155 153 151 150 150 149 148 148 148 149 148 143 136 131 127 121 114 111 111 109 107 107 104 100
186 189 187 182 179 175 170 164 158 153 148 149 154 158 159 158 157 157 157 156 155 155 154 153 154 153 153 153 150 144 139 135 132 128 121 117 117 115 112 111 107 102
187 186 182 180 178 174 168 161 156 152 150 153 158 159 159 159 159 159 159 158 158 158 157 158 157 154 154 153 150 147 143 140 139 134 129 127 123 119 116 113 110 103
185 181 180 179 177 172 165 159 155 151 153 158 160 159 159 160 160 160 161 161 161 162 161 162 160 155 154 152 151 150 146 144 143 138 136 133 123 119 117 114 111 103
181 180 181 178 172 166 161 158 155 152 155 161 162 162 162 160 160 162 165 166 166 166 165 164 162 157 153 152 152 152 150 147 145 143 141 134 124 119 115 111 108 101
179 179 177 171 164 162 161 159 156 154 158 162 166 167 164 162 163 166 169 170 169 169 168 166 163 159 155 156 156 155 153 150 148 148 145 138 132 124 117 111 103 97
174 172 168 165 164 164 162 159 159 159 161 164 168 169 167 166 167 169 172 172 171 170 169 166 164 162 159 159 159 159 157 154 153 152 150 147 144 134 124 113 100 94
168 166 164 167 169 166 164 161 160 161 161 163 166 168 169 171 172 172 171 171 172 171 170 168 167 166 165 165 164 163 161 160 160 158 154 154 154 150 141 125 107 93
164 162 163 167 166 165 168 165 160 160 160 158 160 164 171 177 178 175 171 170 171 171 170 171 172 171 171 169 167 166 167 166 166 165 165 164 164 166 164 153 134 102
161 162 162 164 163 169 175 173 167 167 162 156 157 162 170 177 180 181 177 173 172 173 173 175 177 179 179 175 169 167 169 169 171 172 174 175 174 176 178 181 179 155
164 164 164 166 167 172 176 176 176 172 161 159 166 168 169 170 171 180 187 182 176 176 178 178 182 188 186 180 174 169 167 169 175 177 180 184 184 185 187 190 193 191
168 167 166 165 163 164 171 177 178 169 163 171 179 182 185 183 178 183 196 193 182 180 181 183 191 195 187 180 177 174 170 171 180 182 185 191 192 193 194 189 191 202
173 168 164 163 164 169 175 176 173 169 173 180 183 187 192 190 183 186 197 196 185 182 184 186 194 194 186 180 180 179 176 178 185 189 191 194 193 195 199 188 186 200
174 169 165 166 173 179 179 174 174 177 180 182 182 183 184 182 182 187 194 193 187 184 185 187 192 191 186 185 185 185 185 187 190 190 190 192 189 191 197 188 185 200
168 166 166 167 174 180 179 177 180 181 178 176 177 179 178 179 183 188 189 187 186 185 183 186 191 190 189 190 191 189 191 195 198 193 192 194 191 189 191 184 179 190
164 164 165 165 169 174 174 174 177 177 174 173 173 176 179 181 183 185 184 181 181 184 182 183 190 191 191 193 192 190 192 198 205 201 199 197 190 185 182 179 180 193
165 162 163 166 168 168 169 171 172 172 172 173 172 174 179 180 179 180 181 179 179 182 181 181 188 191 192 192 192 194 196 201 207 205 200 193 184 180 177 176 182 193
170 168 168 172 173 171 170 171 171 170 174 177 177 176 177 177 175 174 177 179 181 182 179 177 184 191 194 195 199 203 201 201 206 201 193 186 179 177 178 177 182 190
179 178 177 178 177 173 173 175 176 178 182 181 177 175 173 173 172 170 173 177 178 180 179 176 183 194 199 201 206 207 200 199 206 198 187 184 180 176 178 180 184 194
183 184 183 182 181 180 181 182 181 183 184 178 173 173 170 169 171 171 171 174 176 178 178 177 187 199 204 205 207 204 194 192 204 198 185 183 181 176 179 184 191 203